Weather History for KOGB - March, 2014

Change the Weather History Date:

Wednesday, March 12, 2014

  Actual Average Record
Temperature  
Mean Temperature 62 °F 56 °F  
Max Temperature 76 °F 68 °F 87 °F (1990)
Min Temperature 48 °F 44 °F 24 °F (1969)
Degree Days  
Heating Degree Days 3 10  
Month to date heating degree days 169 134  
Since 1 July heating degree days 2033 2066  
Cooling Degree Days 0 1  
Month to date cooling degree days 0 4  
Year to date cooling degree days 6 7  
Growing Degree Days 14 (Base 50)    
Moisture  
Dew Point 52 °F    
Average Humidity 70    
Maximum Humidity 93    
Minimum Humidity 43    
Precipitation  
Precipitation 0.03 in 0.13 in 1.12 in (1962)
Month to date precipitation 1.51 1.58  
Year to date precipitation 7.43 9.15  
Sea Level Pressure  
Sea Level Pressure 29.61 in    
Wind  
Wind Speed 16 mph (SW)    
Max Wind Speed 32 mph    
Max Gust Speed 43 mph    
Visibility 9 miles    
Events Rain    
T = Trace of Precipitation, MM = Missing Value Source: NWS Daily Summary

Daily Weather History Graph

Daily Weather History Graph

Search for Another Location

Airport or City:

Trip Planner

Search our weather history database for the weather conditions in past years. The results will help you decide how hot, cold, wet, or windy it might be!

Date:

Astronomy

Mar. 12, 2014 Rise Set
Actual Time 7:37 AM EDT 7:28 PM EDT
Civil Twilight 7:13 AM EDT 7:53 PM EDT
Nautical Twilight 6:44 AM EDT 8:22 PM EDT
Astronomical Twilight 6:15 AM EDT 8:51 PM EDT
Moon 4:06 PM EDT (3/12) 4:59 AM EDT (3/12)
Length of Visible Light 12h 40m
Length of Day
11h 51m
Waxing Gibbous, 85% of the Moon is Illuminated
Mar 12
Waxing Gibbous
Mar 16
Full
Mar 23
Last Quarter
Mar 30
New
Apr 7
First Quarter

Hourly Weather History & Observations

Time (EDT) Temp. Dew Point Humidity Pressure Visibility Wind Dir Wind Speed Gust Speed Precip Events Conditions
12:53 AM 66.0 °F 51.1 °F 59% 29.73 in 9.0 mi South 5.8 mph - N/A   Clear
1:53 AM 64.9 °F 52.0 °F 63% 29.72 in 9.0 mi SSW 6.9 mph - 0.00 in   Clear
2:53 AM 64.0 °F 53.1 °F 67% 29.70 in 9.0 mi SSW 8.1 mph - N/A   Mostly Cloudy
3:53 AM 64.0 °F 53.1 °F 67% 29.68 in 9.0 mi SSW 9.2 mph - N/A   Scattered Clouds
4:53 AM 64.0 °F 53.1 °F 67% 29.70 in 9.0 mi SW 11.5 mph - N/A   Mostly Cloudy
5:53 AM 61.0 °F 51.1 °F 70% 29.70 in 10.0 mi SW 16.1 mph - 0.00 in Rain Light Rain
6:53 AM 57.0 °F 53.1 °F 87% 29.67 in 10.0 mi South 4.6 mph - 0.02 in Rain Light Rain
7:31 AM 55.9 °F 53.1 °F 90% 29.65 in 9.0 mi South 3.5 mph - 0.00 in Rain Light Rain
7:43 AM 55.9 °F 53.1 °F 90% 29.65 in 9.0 mi South 4.6 mph - 0.00 in Rain Light Rain
7:53 AM 55.9 °F 53.1 °F 90% 29.65 in 7.0 mi SSW 3.5 mph - 0.00 in Rain Light Rain
8:29 AM 57.0 °F 54.0 °F 89% 29.65 in 5.0 mi SSW 6.9 mph - 0.00 in   Overcast
8:53 AM 57.0 °F 54.0 °F 89% 29.65 in 5.0 mi SW 9.2 mph - 0.00 in   Overcast
9:53 AM 57.0 °F 55.0 °F 93% 29.65 in 4.0 mi SSW 9.2 mph - 0.01 in Rain Light Rain
10:30 AM 59.0 °F 55.9 °F 90% 29.62 in 10.0 mi SSW 11.5 mph - 0.00 in   Overcast
10:53 AM 62.1 °F 57.0 °F 84% 29.62 in 10.0 mi SW 16.1 mph 21.9 mph 0.00 in   Overcast
11:17 AM 62.1 °F 57.0 °F 84% 29.62 in 10.0 mi SW 15.0 mph - N/A   Overcast
11:53 AM 64.0 °F 57.0 °F 78% 29.60 in 10.0 mi WSW 17.3 mph - N/A   Overcast
12:04 PM 64.0 °F 57.0 °F 78% 29.59 in 10.0 mi SW 17.3 mph - N/A   Overcast
12:53 PM 63.0 °F 57.9 °F 84% 29.58 in 6.0 mi SW 15.0 mph - N/A   Haze
1:53 PM 66.9 °F 57.9 °F 73% 29.55 in 10.0 mi WSW 18.4 mph 24.2 mph N/A   Overcast
2:19 PM 71.1 °F 59.0 °F 66% 29.53 in 10.0 mi WSW 18.4 mph 25.3 mph N/A   Scattered Clouds
2:53 PM 71.1 °F 57.0 °F 61% 29.50 in 10.0 mi West 15.0 mph 27.6 mph N/A   Overcast
3:53 PM 73.0 °F 55.9 °F 55% 29.48 in 10.0 mi WSW 23.0 mph 31.1 mph 0.00 in   Overcast
4:53 PM 75.0 °F 55.0 °F 50% 29.46 in 10.0 mi WSW 17.3 mph 32.2 mph 0.00 in   Partly Cloudy
5:53 PM 75.0 °F 53.1 °F 46% 29.44 in 10.0 mi WSW 21.9 mph 33.4 mph 0.00 in Rain Light Rain
6:53 PM 73.0 °F 53.1 °F 49% 29.44 in 10.0 mi WSW 23.0 mph 28.8 mph 0.00 in   Partly Cloudy
7:53 PM 71.1 °F 53.1 °F 53% 29.47 in 10.0 mi WSW 20.7 mph 26.5 mph N/A   Scattered Clouds
8:53 PM 69.1 °F 48.0 °F 47% 29.54 in 10.0 mi NW 19.6 mph 33.4 mph 0.00 in Rain Light Rain
9:53 PM 57.9 °F 36.0 °F 44% 29.64 in 10.0 mi NW 27.6 mph 38.0 mph 0.00 in Rain Light Rain
10:53 PM 53.1 °F 34.0 °F 48% 29.71 in 10.0 mi WNW 24.2 mph 31.1 mph 0.00 in Rain Light Rain
11:53 PM 50.0 °F 30.9 °F 48% 29.76 in 10.0 mi WNW 18.4 mph 27.6 mph 0.00 in   Clear